Location: The Saddle
(36.8333°N, 80.3417°W)
Time: 19:46:18
(UTC-05:00)

Transit 2A Rocket - Visible Passes

Search period start: 22 January 2022 00:00
Search period end: 01 February 2022 00:00
Orbit: 584 x 918 km, 66.7° (Epoch: 22 January)

Date Brightness Start Highest point End Pass type
(mag) Time Alt. Az. Time Alt. Az. Time Alt. Az.
22 Jan 7.1 04:16:37 23° E 04:16:37 23° E 04:19:05 10° ESE visible
22 Jan 5.6 05:56:35 34° W 05:57:10 35° WSW 06:01:41 10° S visible
22 Jan 5.9 18:40:21 10° S 18:45:43 36° ESE 18:49:31 18° NE visible
22 Jan 6.6 20:22:51 10° WSW 20:28:20 36° NW 20:29:29 33° NNW visible
23 Jan 5.6 05:16:09 44° S 05:16:09 44° S 05:19:37 10° SSE visible
23 Jan 6.6 17:58:58 10° SSE 18:03:18 21° ESE 18:07:44 10° ENE visible
23 Jan 5.8 19:39:33 10° SW 19:45:26 58° WNW 19:48:55 26° N visible
23 Jan 8.1 21:27:35 10° WNW 21:28:52 11° NW 21:28:52 11° NW visible
24 Jan 7.1 04:35:47 18° SE 04:35:47 18° SE 04:37:01 10° SE visible
24 Jan 7.0 06:15:45 10° SW 06:15:45 10° SW 06:15:45 10° SW visible
24 Jan 5.3 18:56:42 10° SSW 19:02:42 86° ESE 19:08:14 13° NNE visible
24 Jan 7.6 20:42:10 10° W 20:46:07 18° NW 20:48:11 15° NNW visible
25 Jan 5.6 18:14:19 10° S 18:20:04 51° ESE 18:26:00 10° NE visible
25 Jan 7.1 19:57:56 10° WSW 20:03:00 27° NW 20:07:23 13° N visible
26 Jan 6.4 19:14:19 10° SW 19:20:01 42° NW 19:25:49 10° NNE visible
27 Jan 5.7 18:31:11 10° SW 18:37:11 69° WNW 18:43:19 10° NNE visible
27 Jan 7.9 20:18:06 10° WNW 20:20:55 13° NW 20:23:45 10° NNW visible
28 Jan 7.5 19:33:17 10° W 19:37:42 20° NW 19:42:10 10° N visible
29 Jan 7.0 18:49:18 10° WSW 18:54:39 32° NW 19:00:03 10° N visible
30 Jan 6.3 18:05:52 10° SW 18:11:43 50° WNW 18:17:41 10° NNE visible
31 Jan 7.7 19:08:56 10° W 19:12:29 16° NW 19:16:01 10° N visible
